Temp
-8 -8 -8 -8 -8 -8 -8 -8 -8 -8 -8 -8 -8 -8 -8 -7 -7 -7 -7 -7 -7 -8 -8 -8 -8 -8 -8 -9 -9 -9 -10 -9 -10 -10 -11 -10 -10 -10 -10 -10 -10 -10 -9 -8 -8
-9 -9 -8 -8 -8 -9 -8 -8 -8 -8 -8 -8 -8 -8 -8 -8 -8 -8 -8 -8 -8 -8 -8 -9 -9 -9 -9 -9 -9 -9 -10 -11 -11 -11 -10 -9 -10 -11 -10 -10 -10 -10 -10 -8 -8
-10 -9 -9 -9 -9 -9 -9 -9 -9 -9 -9 -8 -8 -8 -8 -8 -8 -8 -8 -8 -8 -8 -8 -9 -9 -9 -9 -9 -9 -9 -10 -11 -11 -11 -10 -10 -10 -10 -10 -11 -12 -9 -9 -9 -8
-10 -10 -9 -9 -9 -9 -9 -9 -9 -9 -9 -9 -8 -9 -9 -8 -8 -8 -8 -8 -9 -9 -9 -9 -9 -9 -9 -9 -9 -9 -9 -9 -9 -10 -10 -10 -10 -10 -10 -10 -12 -9 -9 -9 -9
-11 -10 -10 -9 -9 -9 -9 -9 -9 -9 -9 -9 -9 -9 -9 -9 -9 -9 -9 -8 -9 -9 -9 -9 -9 -9 -9 -9 -9 -9 -9 -9 -9 -9 -10 -10 -10 -10 -9 -10 -10 -10 -10 -9 -8
-10 -11 -11 -10 -10 -9 -9 -9 -9 -9 -9 -9 -9 -9 -9 -9 -9 -9 -9 -9 -9 -9 -9 -10 -10 -9 -10 -10 -10 -9 -9 -9 -9 -9 -9 -9 -10 -10 -10 -10 -10 -10 -9 -9 -9
-11 -11 -11 -10 -10 -10 -9 -9 -9 -10 -9 -9 -9 -9 -9 -9 -9 -9 -10 -10 -9 -9 -9 -10 -10 -10 -9 -10 -9 -9 -9 -9 -9 -9 -9 -9 -9 -9 -10 -10 -10 -10 -9 -9 -9
-11 -11 -11 -11 -10 -10 -10 -10 -10 -10 -10 -10 -9 -9 -9 -9 -9 -9 -10 -10 -10 -9 -9 -10 -10 -10 -9 -10 -10 -9 -9 -9 -9 -10 -9 -9 -9 -9 -10 -10 -10 -10 -10 -10 -9
-12 -11 -12 -11 -11 -11 -10 -10 -10 -10 -10 -10 -10 -9 -9 -9 -9 -9 -9 -10 -10 -10 -10 -10 -10 -10 -10 -10 -9 -9 -10 -10 -10 -10 -10 -9 -9 -10 -10 -9 -10 -10 -10 -10 -10
-12 -12 -12 -12 -11 -11 -11 -11 -10 -10 -10 -10 -10 -10 -9 -9 -9 -9 -9 -10 -10 -10 -10 -9 -10 -10 -10 -10 -10 -10 -11 -11 -11 -11 -10 -10 -9 -10 -10 -10 -9 -10 -10 -9 -9
-12 -12 -12 -12 -12 -12 -11 -11 -11 -11 -10 -10 -10 -10 -10 -10 -9 -9 -9 -9 -10 -10 -10 -10 -9 -10 -10 -10 -10 -10 -10 -10 -10 -11 -11 -9 -9 -10 -10 -10 -10 -9 -10 -9 -9
-13 -13 -13 -12 -12 -12 -12 -11 -12 -11 -10 -11 -10 -10 -10 -9 -10 -10 -10 -9 -10 -10 -10 -10 -10 -10 -10 -10 -10 -10 -10 -10 -10 -10 -10 -10 -10 -10 -10 -10 -10 -10 -9 -10 -9
-13 -13 -13 -13 -13 -12 -12 -12 -12 -12 -11 -11 -11 -10 -10 -10 -10 -10 -10 -10 -10 -10 -10 -10 -10 -10 -10 -11 -10 -10 -10 -10 -10 -10 -10 -10 -9 -10 -11 -11 -10 -10 -10 -10 -10
-14 -13 -13 -13 -13 -13 -12 -13 -12 -13 -11 -10 -11 -10 -10 -10 -10 -10 -10 -10 -10 -10 -10 -10 -10 -10 -11 -11 -11 -11 -10 -10 -10 -10 -10 -10 -9 -11 -11 -11 -10 -10 -10 -10 -10
-15 -14 -14 -13 -13 -13 -13 -13 -13 -13 -13 -11 -11 -10 -10 -10 -10 -10 -10 -10 -10 -10 -10 -10 -10 -10 -10 -11 -11 -11 -11 -11 -11 -10 -10 -10 -10 -10 -11 -11 -10 -10 -10 -10 -9
-15 -15 -14 -14 -13 -13 -13 -13 -14 -14 -13 -12 -11 -10 -10 -11 -11 -10 -10 -10 -10 -10 -10 -11 -11 -11 -10 -11 -11 -11 -11 -11 -11 -10 -10 -10 -10 -9 -11 -11 -12 -11 -10 -10 -10
-16 -16 -15 -15 -14 -14 -14 -14 -14 -14 -11 -12 -11 -11 -10 -11 -11 -11 -10 -10 -10 -10 -11 -11 -11 -11 -11 -11 -11 -11 -11 -11 -11 -10 -10 -11 -11 -10 -11 -11 -11 -10 -10 -11 -10
-16 -17 -16 -15 -15 -14 -15 -15 -15 -12 -12 -12 -12 -11 -11 -11 -11 -11 -11 -10 -11 -11 -11 -11 -11 -11 -12 -11 -11 -11 -11 -11 -12 -12 -11 -11 -11 -11 -10 -11 -11 -11 -11 -10 -11
-16 -16 -17 -16 -15 -15 -15 -15 -13 -12 -12 -13 -12 -12 -11 -11 -11 -11 -11 -11 -11 -11 -12 -11 -11 -12 -12 -12 -12 -12 -12 -12 -12 -11 -11 -11 -11 -11 -11 -11 -10 -11 -11 -11 -10
-15 -15 -16 -16 -16 -16 -15 -14 -13 -12 -13 -13 -13 -12 -12 -12 -11 -11 -11 -11 -11 -11 -11 -12 -12 -12 -12 -12 -11 -12 -13 -13 -12 -11 -11 -11 -11 -11 -11 -11 -9 -9 -10 -10 -10
-15 -16 -15 -17 -17 -16 -15 -13 -13 -13 -13 -14 -13 -13 -12 -12 -12 -11 -11 -12 -12 -12 -12 -12 -12 -12 -12 -12 -12 -13 -13 -12 -12 -12 -12 -12 -10 -12 -12 -11 -11 -10 -10 -10 -10
-15 -14 -15 -16 -18 -17 -14 -10 -14 -14 -14 -13 -13 -13 -13 -12 -13 -12 -12 -12 -12 -12 -13 -12 -12 -13 -13 -13 -13 -12 -12 -13 -13 -13 -13 -12 -9 -11 -12 -11 -11 -11 -11 -10 -10
-15 -14 -15 -17 -17 -14 -13 -15 -15 -15 -14 -14 -13 -13 -13 -13 -13 -13 -12 -12 -13 -13 -12 -13 -13 -13 -13 -13 -13 -13 -14 -13 -12 -12 -12 -11 -9 -12 -11 -12 -11 -11 -11 -10 -10
-14 -16 -16 -17 -15 -15 -15 -14 -14 -15 -15 -14 -14 -13 -13 -13 -13 -13 -14 -14 -13 -13 -13 -13 -13 -13 -13 -13 -13 -13 -13 -14 -14 -12 -11 -10 -10 -11 -11 -12 -11 -11 -11 -11 -11
-15 -15 -15 -13 -12 -11 -14 -15 -15 -15 -14 -15 -14 -13 -13 -13 -13 -13 -14 -14 -14 -13 -13 -13 -14 -14 -14 -14 -14 -13 -12 -13 -13 -13 -13 -10 -9 -10 -11 -12 -12 -11 -11 -11 -10
-16 -15 -14 -13 -14 -14 -14 -13 -13 -12 -15 -14 -14 -14 -14 -13 -13 -14 -15 -15 -15 -14 -14 -14 -14 -15 -13 -14 -14 -12 -12 -13 -12 -12 -11 -11 -8 -11 -12 -12 -12 -12 -12 -11 -11
-15 -15 -14 -14 -14 -15 -14 -12 -11 -14 -15 -14 -15 -15 -14 -14 -14 -15 -16 -15 -15 -15 -15 -15 -15 -15 -12 -14 -14 -11 -11 -12 -11 -11 -11 -10 -10 -12 -12 -12 -12 -11 -11 -11 -11
Height
5841 5845 5850 5851 5854 5856 5857 5857 5859 5862 5863 5862 5861 5860 5860 5859 5859 5858 5857 5856 5855 5854 5854 5854 5854 5855 5856 5856 5857 5857 5861 5862 5870 5871 5867 5863 5862 5861 5860 5859 5858 5859 5854 5857 5857
5835 5839 5842 5847 5849 5853 5852 5854 5855 5857 5860 5861 5861 5859 5859 5859 5857 5857 5857 5855 5854 5852 5852 5853 5853 5853 5854 5855 5856 5857 5858 5860 5864 5865 5862 5862 5861 5860 5860 5860 5859 5859 5858 5856 5857
5829 5832 5837 5840 5843 5847 5848 5851 5852 5851 5855 5858 5858 5857 5857 5857 5857 5857 5854 5853 5853 5852 5851 5850 5850 5851 5853 5853 5854 5855 5856 5854 5858 5859 5860 5860 5860 5859 5858 5859 5860 5856 5855 5854 5855
5821 5825 5830 5834 5838 5841 5844 5844 5849 5849 5849 5854 5855 5856 5855 5855 5856 5853 5853 5853 5852 5850 5849 5847 5847 5848 5849 5851 5851 5852 5853 5853 5854 5854 5856 5857 5857 5858 5857 5858 5856 5855 5854 5855 5854
5813 5817 5823 5827 5831 5834 5840 5840 5844 5845 5845 5847 5851 5852 5853 5853 5853 5853 5852 5852 5851 5850 5848 5846 5845 5845 5845 5847 5848 5849 5850 5850 5850 5851 5854 5853 5853 5854 5854 5855 5853 5853 5853 5852 5852
5806 5810 5815 5818 5825 5827 5832 5835 5838 5840 5842 5841 5845 5848 5849 5852 5851 5850 5850 5849 5849 5848 5846 5844 5842 5841 5842 5843 5844 5845 5845 5846 5847 5848 5849 5850 5851 5850 5853 5851 5850 5850 5851 5851 5850
5796 5802 5807 5811 5816 5821 5825 5828 5834 5834 5838 5837 5839 5842 5845 5846 5848 5848 5848 5847 5846 5846 5844 5842 5840 5840 5839 5839 5841 5841 5842 5842 5844 5845 5845 5845 5847 5848 5848 5846 5847 5846 5846 5846 5846
5787 5792 5799 5802 5808 5813 5817 5821 5827 5828 5832 5832 5833 5836 5841 5842 5843 5844 5845 5845 5844 5843 5842 5840 5839 5837 5836 5836 5836 5837 5838 5839 5840 5840 5840 5840 5843 5845 5843 5842 5842 5842 5843 5842 5842
5776 5783 5788 5794 5800 5805 5807 5814 5819 5821 5826 5826 5828 5829 5835 5839 5838 5840 5841 5842 5841 5840 5840 5838 5836 5835 5835 5833 5833 5833 5834 5834 5835 5835 5836 5834 5837 5837 5836 5837 5838 5838 5839 5838 5837
5764 5772 5778 5783 5791 5795 5800 5805 5810 5814 5817 5819 5822 5825 5828 5832 5834 5835 5835 5838 5838 5838 5837 5836 5834 5832 5831 5830 5830 5829 5832 5830 5833 5835 5831 5830 5829 5834 5833 5831 5834 5835 5834 5834 5833
5750 5759 5767 5771 5780 5785 5791 5796 5801 5805 5805 5814 5815 5818 5821 5825 5829 5829 5831 5834 5833 5834 5834 5832 5831 5829 5828 5827 5826 5826 5827 5827 5828 5831 5828 5825 5826 5827 5827 5829 5828 5828 5830 5828 5828
5736 5745 5754 5760 5767 5775 5782 5786 5787 5796 5801 5806 5808 5812 5813 5818 5822 5825 5827 5829 5829 5829 5828 5829 5828 5826 5824 5824 5823 5823 5823 5824 5824 5825 5823 5821 5821 5820 5822 5823 5823 5822 5823 5823 5823
5722 5731 5740 5747 5755 5766 5772 5778 5777 5786 5789 5798 5802 5804 5808 5809 5816 5820 5822 5823 5823 5825 5823 5824 5823 5822 5821 5820 5820 5819 5819 5819 5819 5819 5817 5817 5816 5816 5817 5817 5817 5818 5818 5818 5818
5706 5717 5726 5735 5747 5755 5763 5767 5771 5774 5777 5788 5794 5796 5799 5803 5808 5814 5815 5818 5818 5820 5819 5819 5820 5818 5817 5816 5816 5816 5815 5815 5814 5814 5814 5812 5811 5811 5812 5811 5811 5812 5813 5813 5814
5693 5703 5712 5727 5735 5743 5755 5754 5761 5765 5765 5778 5781 5787 5794 5797 5802 5807 5808 5810 5813 5814 5814 5815 5815 5814 5813 5812 5812 5813 5811 5810 5810 5808 5808 5811 5807 5809 5808 5808 5808 5807 5806 5807 5808
5679 5689 5699 5708 5721 5734 5735 5745 5744 5749 5757 5761 5770 5778 5784 5789 5794 5798 5802 5804 5807 5807 5808 5809 5808 5809 5810 5809 5808 5807 5807 5806 5804 5803 5802 5805 5802 5805 5804 5803 5805 5799 5801 5801 5802
5662 5674 5686 5697 5714 5718 5727 5726 5730 5729 5762 5755 5760 5770 5776 5780 5785 5791 5795 5797 5799 5801 5803 5802 5801 5802 5803 5804 5803 5802 5801 5800 5797 5797 5797 5798 5796 5800 5801 5798 5795 5794 5795 5796 5796
5643 5656 5671 5685 5694 5700 5705 5707 5703 5736 5746 5750 5748 5755 5765 5772 5777 5783 5786 5789 5792 5794 5796 5794 5796 5795 5797 5799 5796 5795 5796 5796 5791 5793 5792 5792 5791 5793 5795 5793 5793 5791 5789 5789 5792
5628 5636 5651 5670 5676 5685 5687 5683 5704 5730 5737 5742 5740 5742 5757 5761 5769 5772 5777 5781 5784 5786 5789 5791 5790 5789 5784 5790 5793 5795 5786 5788 5784 5785 5783 5786 5787 5784 5786 5784 5786 5785 5785 5784 5784
5608 5621 5639 5653 5660 5667 5667 5680 5703 5719 5726 5728 5731 5734 5745 5752 5757 5763 5767 5773 5776 5778 5780 5784 5783 5784 5782 5775 5785 5787 5786 5781 5779 5775 5773 5774 5777 5780 5775 5774 5774 5779 5780 5778 5777
5592 5601 5627 5634 5641 5646 5650 5673 5693 5702 5709 5716 5722 5727 5730 5741 5746 5751 5756 5763 5766 5769 5770 5775 5774 5778 5778 5769 5776 5777 5771 5777 5772 5771 5765 5762 5764 5776 5768 5766 5767 5769 5772 5771 5768
5577 5588 5611 5613 5618 5631 5649 5667 5680 5687 5697 5702 5711 5718 5716 5734 5735 5740 5744 5752 5753 5758 5760 5765 5764 5763 5767 5772 5762 5765 5766 5766 5761 5760 5756 5752 5747 5760 5762 5758 5761 5761 5764 5761 5759
5560 5591 5591 5591 5597 5622 5646 5652 5663 5674 5683 5693 5698 5705 5713 5720 5726 5727 5734 5743 5742 5743 5748 5754 5753 5754 5756 5759 5760 5757 5755 5755 5753 5749 5744 5744 5742 5751 5750 5749 5749 5752 5752 5749 5748
5544 5549 5566 5573 5604 5620 5631 5640 5649 5664 5669 5681 5686 5693 5702 5708 5714 5719 5721 5725 5729 5731 5735 5739 5743 5744 5745 5748 5748 5745 5746 5744 5741 5735 5733 5729 5731 5736 5739 5739 5744 5738 5740 5739 5737
5524 5529 5553 5569 5591 5609 5614 5625 5638 5649 5660 5668 5672 5678 5689 5696 5702 5705 5710 5712 5718 5721 5725 5725 5729 5731 5732 5733 5733 5730 5729 5731 5727 5727 5723 5723 5722 5725 5728 5732 5730 5725 5727 5727 5723
5512 5528 5554 5577 5587 5594 5602 5611 5625 5637 5645 5654 5660 5666 5671 5683 5693 5700 5699 5705 5705 5708 5710 5712 5712 5715 5714 5719 5720 5715 5714 5711 5711 5716 5715 5714 5705 5720 5721 5717 5718 5719 5716 5712 5711
5514 5533 5546 5559 5570 5577 5593 5610 5619 5626 5633 5648 5654 5655 5658 5676 5681 5682 5685 5689 5694 5695 5697 5701 5701 5702 5699 5706 5704 5697 5701 5704 5701 5701 5703 5701 5707 5707 5704 5706 5708 5706 5704 5702 5701
Wind_Speed
36 33 30 27 25 22 20 17 15 12 9 6 3 4 7 8 10 8 10 8 8 8 9 7 6 6 7 5 5 8 7 8 5 10 16 14 14 11 14 16 10 13 16 5 7
39 36 34 31 28 26 23 21 18 15 12 10 7 3 4 6 8 9 8 8 8 8 8 8 7 7 9 9 7 9 14 1 12 21 27 14 13 12 12 13 16 15 12 9 9
43 40 37 35 32 30 27 24 22 19 16 13 10 6 4 5 7 8 9 9 9 10 9 9 8 8 10 12 11 10 15 13 14 31 24 18 14 15 11 5 14 17 16 14 13
47 44 41 38 35 33 31 27 26 22 19 17 14 11 8 6 5 8 12 12 11 10 10 9 9 9 10 13 15 16 16 19 18 22 19 19 17 16 15 11 17 16 18 15 16
51 47 45 42 39 37 35 30 29 26 23 20 19 16 12 10 5 6 7 10 10 10 12 13 9 10 11 14 17 18 19 21 20 22 18 21 19 17 17 16 20 17 16 19 19
56 51 48 45 43 40 38 34 32 29 27 23 23 20 17 14 10 8 7 7 10 12 12 13 10 10 11 14 15 18 22 23 23 23 21 23 20 23 16 20 22 22 19 18 22
60 56 52 49 47 44 42 38 37 32 31 27 26 24 20 18 15 11 11 9 9 12 13 15 11 12 12 14 14 16 19 21 23 23 24 25 23 20 20 24 23 23 21 21 22
65 61 57 52 50 48 44 41 40 36 35 32 29 27 21 19 19 15 14 12 10 11 14 15 16 12 13 13 12 16 16 18 18 24 26 28 22 20 23 25 24 23 23 23 20
69 66 61 57 55 51 48 45 43 39 38 36 33 30 26 22 22 18 17 15 12 12 13 16 16 15 13 12 11 12 12 17 17 20 25 29 23 20 28 25 22 24 22 22 26
72 70 66 61 60 54 51 48 46 42 43 40 36 33 30 27 23 23 19 19 15 15 14 15 18 15 13 14 10 5 11 15 13 15 24 24 27 21 28 31 27 26 27 24 26
76 74 71 66 63 58 54 51 48 48 49 41 40 34 32 30 28 24 21 22 20 17 17 18 17 17 15 13 9 15 15 17 17 15 28 30 22 27 29 30 32 29 26 29 26
79 77 75 71 66 63 58 54 52 52 47 44 43 39 36 33 29 26 24 22 23 19 20 20 16 14 14 14 15 13 17 17 19 23 28 28 22 24 24 24 29 33 29 28 27
80 78 77 75 70 66 61 56 55 51 54 47 43 44 39 39 31 27 28 24 25 22 22 21 20 18 18 15 15 15 16 17 19 21 23 20 23 18 18 22 27 27 27 28 27
78 79 79 77 73 68 64 60 57 54 57 52 47 46 44 41 35 31 29 27 26 23 25 20 22 24 20 19 17 15 17 17 19 23 21 20 20 15 13 21 20 21 24 27 27
80 80 80 77 74 71 66 64 60 57 57 53 55 49 45 43 37 33 33 30 26 25 27 24 21 23 21 20 21 19 17 20 20 21 24 20 25 12 9 15 22 20 25 29 28
81 80 80 79 78 73 72 65 64 63 60 58 55 51 48 44 40 37 34 33 28 30 25 26 25 20 23 25 23 26 25 22 24 24 26 21 24 17 5 18 23 30 22 23 19
86 80 78 77 73 75 71 71 68 69 57 59 58 53 49 46 40 39 36 34 30 31 27 26 27 25 24 24 26 28 29 27 27 26 23 19 19 8 11 18 24 29 26 27 23
93 83 77 75 77 78 75 75 76 69 62 57 60 59 52 48 43 39 37 34 31 29 30 29 30 29 26 25 31 31 29 27 28 22 21 22 25 24 21 26 28 32 33 33 30
93 95 80 76 78 77 79 82 79 68 63 58 60 63 53 50 45 44 41 38 33 34 35 33 28 30 42 33 29 27 36 32 34 33 35 31 32 35 34 36 29 31 33 32 33
93 97 86 76 79 79 81 83 77 69 63 61 61 62 55 50 48 45 43 39 34 36 33 37 39 33 40 47 35 32 30 35 39 39 40 36 26 12 19 24 29 15 17 26 31
90 95 90 82 77 82 83 82 74 69 66 64 65 62 61 53 52 49 47 44 41 37 37 39 43 40 40 51 42 36 44 38 41 40 44 47 44 30 36 40 41 36 26 25 31
95 90 92 89 85 83 77 75 77 72 67 67 67 65 67 53 52 51 52 47 45 41 40 39 43 47 45 41 51 48 43 41 45 47 47 50 49 38 36 39 34 33 28 33 38
85 82 90 89 89 82 76 78 75 72 72 69 70 67 61 58 55 53 54 49 45 47 46 41 46 49 46 45 47 49 47 48 50 51 53 51 48 46 46 42 39 34 30 34 37
85 100 100 84 81 81 83 85 82 76 74 72 72 70 66 62 58 58 57 54 50 51 51 44 44 48 52 50 52 57 56 53 55 58 57 54 51 46 46 45 35 37 30 31 36
89 99 105 87 81 70 83 86 79 73 73 70 73 73 67 64 63 62 60 57 53 53 53 49 51 48 55 53 54 62 59 61 62 59 59 53 52 50 42 37 39 41 34 36 38
74 88 87 87 77 78 82 80 77 75 77 75 76 75 73 70 62 57 55 54 55 53 54 50 59 54 63 59 59 61 58 60 58 53 53 54 51 46 38 39 38 39 42 45 45
95 83 85 80 73 82 73 51 63 80 79 74 73 76 80 69 63 60 55 58 56 58 61 63 65 64 66 63 63 60 59 59 54 52 52 48 39 35 41 40 37 39 43 47 46
Wind_Direction
227 228 231 228 229 229 229 228 237 252 269 291 320 353 20 19 0 351 343 346 353 347 328 317 282 253 238 243 219 186 182 89 239 232 257 254 265 258 267 274 277 238 247 240 223
228 227 227 230 228 230 227 229 228 237 251 266 280 306 10 25 14 2 341 341 354 352 321 310 290 259 236 235 228 188 165 131 194 234 233 248 256 264 260 265 270 259 254 251 240
229 227 227 228 227 230 227 229 229 225 237 249 263 264 295 353 4 353 351 358 349 344 330 310 290 271 247 237 230 216 199 205 221 231 256 253 242 257 262 228 275 285 267 261 251
228 228 227 227 227 228 230 226 232 230 227 243 251 260 261 299 348 352 355 355 348 344 334 328 296 265 256 245 236 238 227 237 244 231 237 242 250 243 259 235 234 265 282 275 269
228 228 227 227 227 227 230 228 231 232 229 232 245 251 256 269 299 326 355 352 349 352 331 333 310 276 255 251 244 243 243 246 242 249 236 246 254 255 260 262 262 266 267 278 276
230 229 228 226 228 226 229 228 230 233 233 230 239 246 254 262 272 289 324 354 354 333 334 333 320 289 275 256 254 249 250 249 248 251 249 248 251 255 259 258 257 266 271 270 271
230 230 230 228 227 227 228 228 231 230 236 233 237 242 248 255 264 274 290 315 334 340 334 337 336 311 283 276 265 258 261 258 261 256 255 251 248 255 247 257 259 265 269 262 266
232 230 231 229 229 228 228 228 232 231 233 235 236 241 242 249 255 262 273 293 316 332 329 331 332 324 299 285 275 266 269 269 266 262 262 257 254 258 258 252 258 261 269 280 275
231 231 230 230 231 229 228 229 231 232 234 235 236 239 241 248 253 255 266 273 288 307 322 323 324 321 306 292 295 288 271 275 262 269 274 270 259 255 254 263 251 265 269 271 276
230 231 231 230 233 230 229 230 231 232 234 235 235 239 240 245 251 256 259 270 277 293 303 309 312 312 304 294 298 266 302 297 305 264 275 271 273 251 261 269 257 260 268 270 273
228 229 231 229 232 232 230 231 232 233 232 234 236 238 241 242 251 253 256 268 271 284 294 308 306 307 311 305 289 273 270 261 226 218 261 276 276 269 263 258 270 264 260 267 269
226 227 229 229 230 232 232 232 234 236 233 235 237 233 243 241 245 252 254 259 269 276 290 299 301 305 309 306 304 283 271 267 257 254 265 276 276 267 268 268 259 267 269 263 268
225 226 228 229 229 232 233 234 235 238 237 232 236 239 238 244 242 247 254 255 264 275 283 293 301 303 303 305 298 296 286 275 270 264 269 275 269 264 262 266 259 262 265 271 273
224 226 227 229 230 230 232 234 237 240 241 234 236 238 240 244 241 246 254 252 258 270 277 289 296 293 290 296 298 294 290 288 278 276 273 265 280 260 240 276 272 263 260 262 261
223 227 227 228 229 230 231 233 236 239 243 239 235 235 239 243 245 242 249 251 253 262 270 287 292 295 289 286 297 300 296 289 289 286 282 279 277 279 250 286 278 269 254 257 262
224 225 226 227 229 228 231 232 233 237 237 242 238 237 237 241 245 246 246 253 251 261 260 280 283 286 282 286 291 296 298 293 287 284 282 292 279 275 257 245 236 253 268 271 263
222 223 225 227 228 230 230 232 233 234 234 240 242 243 241 241 245 246 247 250 249 258 256 266 279 284 279 280 293 294 296 299 294 293 296 297 283 264 200 254 243 254 273 270 263
218 217 223 223 228 228 227 229 231 232 233 239 246 242 241 243 245 247 246 248 248 250 256 271 275 286 272 275 292 304 299 295 286 263 247 258 267 275 268 256 271 273 277 272 271
226 217 218 221 226 228 228 229 232 232 235 236 245 250 243 243 245 249 250 249 246 247 250 263 264 269 277 285 288 296 298 298 289 284 279 271 264 278 284 279 264 256 258 269 272
221 219 215 219 225 226 229 232 233 232 232 236 238 248 245 245 246 246 250 250 248 250 248 258 257 260 277 282 290 287 283 287 291 290 284 280 278 292 270 268 276 272 273 268 269
222 217 220 214 223 228 228 228 229 231 231 234 239 244 246 245 247 249 249 249 248 251 252 255 258 263 267 279 284 293 287 280 286 284 285 282 274 261 255 267 275 284 281 272 268
222 225 222 215 220 224 227 229 228 230 231 232 236 237 246 243 251 248 251 253 255 252 253 255 258 265 266 272 281 286 287 279 283 289 289 286 275 276 270 271 279 276 274 276 273
224 229 230 215 219 226 228 228 227 229 228 232 236 237 243 244 246 254 254 252 252 257 255 257 261 270 268 270 274 279 291 283 278 277 276 279 282 276 275 281 285 286 271 268 269
219 224 218 217 225 229 229 232 229 230 234 234 238 240 241 243 245 246 254 256 255 258 263 261 263 266 269 272 277 277 278 281 282 282 283 275 281 282 275 275 288 289 284 278 275
216 218 221 223 236 239 235 230 231 232 231 236 239 239 239 243 245 248 250 256 258 260 263 264 267 267 266 269 270 275 277 281 279 273 275 283 286 282 280 288 283 282 278 281 284
213 216 223 230 238 240 238 235 242 235 228 232 237 243 241 239 244 251 257 256 260 261 265 264 263 268 270 274 275 277 275 279 271 276 282 284 275 281 293 281 278 281 281 281 277
222 225 229 231 239 237 232 237 238 234 234 236 239 243 247 245 248 252 253 256 258 260 262 263 264 267 273 277 275 269 270 280 275 274 278 282 289 278 270 275 280 275 274 277 284